Back to catalog

CZ-4 DEB

AlivePO
NORAD 26207·DEBRIS·🇨🇳 China

Launched Oct 14, 1999 from Taiyuan Satellite Launch Center

Loading…

Next Passes (next 24 hours)

TLE

FreshSource: Space-Track

Epoch: Sep 14, 2026, 14:27 UTC

1 26207U 99057CV  26257.60227736  .00011037  00000-0  11072-2 0  9997
2 26207  98.4028  20.6422 0054320 120.4315 250.7199 14.90403603396995

Track CZ-4 DEB in real time with AllMySat

Download on the App Store